Home > Time Zones > World Clock > Weather > India > Gonda > Past weeks

Flag for India Weather past 2 weeks in Gonda, Uttar Pradesh, India

Now
88 °F

Broken clouds.


Feels Like: 102 °F
Forecast: 77 / 81 °F
Wind: 7 mph from Northwest

Location: Lucknow / Amausi

Current Time: Jul 31, 2015 at 11:19:30 AM

Latest Report: Jul 31, 2015 at 10:30 AM


Visibility: 3 mi

Pressure: 29.59 "Hg

Humidity: 75%

Dew point: 79 °F

Location of GondaLocation

Historic Weather in Gonda — Graph

°F

Gonda temperature yesterday

Maximum temperature yesterday: 93 °F (at 12:30 PM)
Minimum temperature yesterday: 81 °F (at 4:00 AM)
Average temperature yesterday: 87 °F

Past Weeks' High & Low Weather Summary

 TemperatureHumidityPressure
High97 °F (Jul 28, 5:30 PM)100% (Jul 24, 6:30 PM)29.65 "Hg (Jul 24, 6:30 PM)
Low79 °F (Jul 24, 3:30 PM)53% (Jul 28, 5:30 PM)29.39 "Hg (Jul 16, 4:30 PM)
Average88 °F78%29.53 "Hg
* Reported Jul 16 9:30 AM — Jul 31 10:00 AM, Gonda, Weather by CustomWeather, © 2015

Note: Actual official high and low records may vary slightly from our data, if they occured in-between our weather recording intervals... More about our weather records

Advertising

Gonda weather history for previous 24 hours

 ConditionsComfort  
Time TempWeatherWind HumidityBarometerVisibility
10:00 AM
Fri, Jul 31
88 °FBroken clouds.6 mph75%29.59 "Hg2 mi
9:00 AM86 °FBroken clouds.6 mph75%29.56 "Hg2 mi
8:30 AM84 °FBroken clouds.3 mph79%29.56 "Hg2 mi
7:30 AM82 °FLight rain. Broken clouds.5 mph84%29.56 "Hg2 mi
7:00 AM82 °FLight rain. Broken clouds.No wind84%29.56 "Hg2 mi
6:30 AM82 °FBroken clouds.No wind84%29.56 "Hg2 mi
6:00 AM82 °FBroken clouds.No wind84%29.53 "Hg2 mi
5:30 AM82 °FPartly cloudy.5 mph84%29.53 "Hg2 mi
5:00 AM82 °FPartly cloudy.6 mph84%29.53 "Hg2 mi
4:00 AM84 °FPartly cloudy.No wind84%29.53 "Hg2 mi
2:00 AM84 °FPartly cloudy.No wind84%29.53 "Hg2 mi
1:00 AM84 °FPartly cloudy.3 mph84%29.53 "Hg2 mi
12:00 AM84 °FPartly cloudy.3 mph84%29.56 "Hg2 mi
11:00 PM
Thu, Jul 30
84 °FPartly cloudy.3 mph84%29.56 "Hg2 mi
10:00 PM84 °FPartly cloudy.3 mph84%29.56 "Hg2 mi
9:00 PM86 °FPartly cloudy.5 mph75%29.53 "Hg2 mi
8:30 PM84 °FPartly cloudy.3 mph84%29.53 "Hg2 mi
8:00 PM84 °FPartly cloudy.5 mph84%29.53 "Hg2 mi
7:30 PM86 °FPartly cloudy.5 mph75%29.50 "Hg2 mi
7:00 PM88 °FBroken clouds.7 mph70%29.50 "Hg3 mi
6:30 PM90 °FBroken clouds.3 mph71%29.50 "Hg3 mi
6:00 PM90 °FBroken clouds.6 mph71%29.50 "Hg3 mi
5:30 PM90 °FBroken clouds.7 mph71%29.50 "Hg3 mi
5:00 PM91 °FBroken clouds.9 mph71%29.47 "Hg3 mi
4:30 PM90 °FBroken clouds.2 mph71%29.50 "Hg3 mi
4:00 PM90 °FBroken clouds.7 mph71%29.50 "Hg3 mi
3:30 PM90 °FBroken clouds.5 mph75%29.50 "Hg3 mi
3:00 PM91 °FBroken clouds.6 mph59%29.53 "Hg3 mi
2:30 PM93 °FBroken clouds.8 mph63%29.53 "Hg4 mi
2:00 PM93 °FScattered clouds.8 mph63%29.53 "Hg4 mi
1:30 PM93 °FScattered clouds.9 mph63%29.53 "Hg4 mi
1:00 PM93 °FScattered clouds.9 mph59%29.56 "Hg4 mi
12:30 PM93 °FScattered clouds.7 mph63%29.56 "Hg4 mi
12:00 PM91 °FScattered clouds.7 mph67%29.56 "Hg4 mi
11:30 AM91 °FScattered clouds.8 mph67%29.56 "Hg3 mi
11:00 AM90 °FScattered clouds.6 mph71%29.56 "Hg3 mi
Weather by CustomWeather, © 2015

See weather overviewHow to use our weather pages